Regional Weather Roundup
Issued by NWS

Home | Current Version | Previous Version | Text Only | Print | Product List | Glossary Off
Versions: 1 2 3 4 5 6 7 8 9 10 11 12 13 14 15 16 17 18 19 20 21 22 23 24 25 26 27 28 29 30 31 32 33 34 35 36 37 38 39 40 41 42 43 44 45 46 47 48 49 50

000
ASUS43 KLMK 261702
RWRKY
KENTUCKY REGIONAL WEATHER ROUNDUP
NATIONAL WEATHER SERVICE LOUISVILLE KY
100 PM EDT MON SEP 26 2016

NOTE "FAIR" INDICATES FEW OR NO CLOUDS BELOW 12,000 FEET
WITH NO SIGNIFICANT WEATHER AND/OR OBSTRUCTIONS TO VISIBILITY.

KYZ001>023-026-027-061>063-070>075-261800-
WESTERN AND SOUTH CENTRAL KENTUCKY

CITY           SKY/WX    TMP DP  RH WIND       PRES   REMARKS
PADUCAH        PTSUNNY   67  55  65 N10       30.15S
HENDERSON      CLOUDY    64  55  72 NW7       30.14S
OWENSBORO      PTSUNNY  N/A N/A N/A N8        30.13S
HOPKINSVILLE   CLOUDY    63  59  88 N8        30.14R
BOWLING GREEN  RAIN      63  60  90 N3        30.11F FOG
GLASGOW        DRIZZLE   66  59  77 SW7       30.13S
$$

KYZ024-025-028>034-038-045-046-053-261800-
NORTH CENTRAL KENTUCKY

CITY           SKY/WX    TMP DP  RH WIND       PRES   REMARKS
LOUISVILLE/SDF CLOUDY    65  60  84 NW8       30.10F
LOUISVILLE/LOU PTSUNNY   64  59  83 W7        30.11S
FORT KNOX      CLOUDY    63  59  88 W8        30.10S
$$

KYZ035>037-039>044-047>052-055>060-089>105-261800-
NORTHEAST KENTUCKY

CITY           SKY/WX    TMP DP  RH WIND       PRES   REMARKS
LEXINGTON      RAIN      66  58  75 W8        30.10S
COVINGTON      CLOUDY    62  59  90 W12       30.07S
FRANKFORT      LGT RAIN  63  60  90 W5        30.09S
$$

KYZ054-064>069-076>088-106>120-261800-
SOUTHEAST KENTUCKY

CITY           SKY/WX    TMP DP  RH WIND       PRES   REMARKS
JACKSON        PTSUNNY   80  66  62 VRB3      30.06S
LONDON         PTSUNNY   77  64  64 NW9       30.08R
SOMERSET       CLOUDY    72  64  78 NW7       30.10S
MIDDLESBORO    CLOUDY    81  67  61 SE5       30.07S
MONTICELLO     CLOUDY    73  67  81 N16       30.11F
$$




USA.gov is the U.S. government's official web portal to all federal, state and local government web resources and services.